• Join FlightAware (Why Join?)
  • Login
  • US Flag 
Gobble Gobble! 
07:29PM EST


 

Airport Tracker/Info


-or-


 

Live Flight TrackerFlight Track Log ✈ N112CS ✈ 11-Apr-2014 ✈ KFYV - KLIT

Flight Track Log - Related Links

Times and Time Zones

All times are in EDT time to prevent confusion due to time zone crossing. See the N112CS flight status page for this flight to view local times or setup timezone preferences in your user account.

Time Position Orientation Groundspeed Altitude Reporting Facility
EDT Latitude Longitude Course Direction KTS MPH feet Rate Location/Type
05:41PM 35.9075 -94.1483 129° Southeast 186 214 4,600  Level Memphis Center
05:42PM 35.8592 -94.0994 141° Southeast 190 219 6,500 1,920 Climbing Memphis Center
05:43PM 35.8261 -94.0503 130° Southeast 188 216 8,600 1,680 Climbing Memphis Center
05:44PM 35.8031 -94.0058 123° Southeast 179 206 10,000 1,440 Climbing Memphis Center
05:45PM 35.7619 -93.7928 129° Southeast  Level FlightAware Approximate
05:45PM 35.7714 -93.9408 121° Southeast 181 208 11,600  Level Memphis Center
05:46PM 35.7208 -93.7311 129° Southeast  Level FlightAware Approximate
05:46PM 35.7392 -93.8850 125° Southeast 195 224 12,700  Level Memphis Center
05:47PM 35.7025 -93.8192 124° Southeast 225 259 13,000 120 Climbing Memphis Center
05:48PM 35.6572 -93.7458 127° Southeast 261 300 13,000  Level Memphis Center
05:49PM 35.6114 -93.6656 125° Southeast 281 323 13,000  Level Memphis Center
05:50PM 35.5636 -93.5828 125° Southeast 293 337 13,000  Level Memphis Center
05:51PM 35.5075 -93.4822 124° Southeast 295 339 13,000  Level Memphis Center
05:52PM 35.4617 -93.3989 124° Southeast 295 339 13,000  Level Memphis Center
05:53PM 35.4150 -93.3119 123° Southeast 298 343 13,000  Level Memphis Center
05:54PM 35.3683 -93.2283 124° Southeast 298 343 13,000 -60 Level Memphis Center
05:55PM 35.3194 -93.1475 127° Southeast 298 343 12,900  Descending Memphis Center
05:56PM 35.2689 -93.0669 128° Southeast 298 343 13,000 60 Climbing Memphis Center
05:57PM 35.2361 -93.0117 126° Southeast 298 343 13,000 -540 Level Memphis Center
05:57PM 35.2086 -92.9689 128° Southeast 298 343 12,500 -1,080 Descending Memphis Center
05:58PM 35.1653 -92.9036 129° Southeast 320 368 11,600 -1,200 Descending Memphis Center
05:58PM 35.1528 -92.8828 126° Southeast 316 364 11,300 -1,140 Descending Memphis Center
05:59PM 35.1189 -92.8325 129° Southeast 334 384 10,700 -900 Descending Memphis Center
05:59PM 35.0892 -92.7864 128° Southeast 325 374 10,400 -780 Descending Memphis Center
06:00PM 35.0656 -92.7492 128° Southeast 329 379 10,000 -1,380 Descending Memphis Center
06:00PM 35.0336 -92.7008 129° Southeast 325 374 9,000 -1,800 Descending Memphis Center
06:01PM 34.9942 -92.6389 128° Southeast 318 366 7,700 -1,800 Descending Memphis Center
06:02PM 34.9797 -92.6172 129° Southeast 321 369 7,200 -1,620 Descending Memphis Center
06:02PM 34.9411 -92.5608 130° Southeast 285 328 6,100 -1,500 Descending Memphis Center
06:03PM 34.9308 -92.5431 125° Southeast 299 344 5,700 -1,740 Descending Memphis Center
06:03PM 34.8964 -92.4925 130° Southeast 257 296 4,400 -1,680 Descending Memphis Center
06:04PM 34.8844 -92.4731 127° Southeast 278 320 4,000 -1,500 Descending Memphis Center
06:04PM 34.8475 -92.4194 130° Southeast 267 307 2,900 -1,080 Descending Memphis Center
06:05PM 34.8375 -92.4044 129° Southeast 270 311 2,900 -600 Level Memphis Center
06:05PM 34.8072 -92.3533 126° Southeast 251 289 2,300 -1,020 Descending Memphis Center
06:06PM 34.7936 -92.3200 116° Southeast 255 293 1,900 -780 Descending Memphis Center
06:06PM 34.7792 -92.2842 116° Southeast 235 270 1,600 -420 Descending Memphis Center
06:07PM 34.7689 -92.2561 114° Southeast 227 261 1,500 -720 Descending Memphis Center
06:07PM 34.7542 -92.2378 134° Southeast 148 170 900 -300 Descending Memphis Center
06:08PM 34.7492 -92.2078 101° East 214 246 1,200 480 Climbing Memphis Center